SCP
-0 0 0 0 0 0 0 0 0 0 0 -0 0 0 0 0 0 0 0 0 0 0 0 0 0 0 0 0 0 0 0 0 0 0 0 1 1 1 1 1 1 1 1 1
0 0 0 0 0 0 -0 -0 0 0 -0 0 0 0 0 0 0 0 0 0 0 0 0 0 0 0 0 0 0 0 0 0 0 0 0 1 1 0 0 1 1 1 1 2
0 0 0 0 0 0 0 0 0 0 0 0 0 0 0 0 0 0 0 0 0 0 0 0 0 0 0 0 0 0 -0 0 0 0 0 1 0 0 0 1 2 2 2 2
0 0 0 0 0 0 0 0 0 0 0 0 0 0 0 0 0 0 0 0 0 0 0 0 0 0 0 0 -0 0 0 0 0 -0 0 1 0 1 2 3 3 3 3 3
0 0 0 0 0 0 0 0 0 0 0 0 0 0 0 0 0 0 -0 -0 0 0 0 0 0 0 0 -0 -0 -0 -0 -0 0 -0 1 0 0 1 4 4 4 3 3 2
0 0 0 0 0 0 0 -0 0 0 0 0 0 0 0 0 -0 -0 0 -0 0 0 0 0 0 0 0 -0 0 0 -0 0 0 1 1 1 2 2 4 5 4 3 2 2
0 0 0 0 0 0 0 0 0 0 0 0 -0 0 -0 -0 -0 0 0 -0 -0 0 0 0 -0 -0 0 0 0 -0 0 0 0 1 1 2 3 4 5 4 3 2 1 1
0 0 0 0 0 0 0 -0 -0 -0 -0 0 0 -0 0 0 -0 -0 -0 -0 0 -0 -0 0 -0 -0 -0 0 0 0 0 0 1 1 2 2 3 4 3 3 2 1 0 0
0 0 0 0 0 -0 -0 -0 -0 -0 0 0 0 -0 -0 -0 -0 -0 0 0 0 0 -0 0 -0 -0 0 0 0 0 0 0 1 1 1 1 2 2 1 1 1 0 0 0
0 0 0 -0 -0 -0 0 0 -0 0 0 0 -0 -0 -0 -0 0 0 0 -0 0 0 0 -0 -0 -0 0 0 0 0 0 1 1 1 1 1 2 2 1 0 0 0 0 0
0 0 -0 -0 -0 -0 0 0 0 0 0 -0 -0 -0 0 0 -0 0 -0 -0 0 0 -0 -0 -0 0 0 0 0 0 1 0 1 1 1 1 0 0 0 0 0 0 0 0
0 -0 -0 -0 -0 -0 0 0 -0 -0 -0 -0 -0 0 -0 0 -0 0 -0 -0 -0 -0 -0 0 0 0 0 0 0 0 0 0 0 0 0 0 0 0 0 0 0 0 0 0
0 0 -0 0 -0 0 0 -0 -0 -0 -0 -0 -0 0 -0 -0 0 0 0 -0 0 0 0 0 0 0 0 0 0 0 0 0 0 0 0 0 0 0 0 0 0 0 0 0
0 -0 0 -0 -0 -0 -0 -0 -0 -0 -0 0 0 0 0 -0 0 0 0 0 0 0 0 0 0 0 0 0 0 0 0 0 0 0 0 0 0 0 0 0 0 0 0 0
0 0 0 -0 -0 -0 -0 -0 -0 -0 -0 0 0 -0 -0 0 0 0 0 0 0 0 0 0 0 0 0 0 0 0 0 0 0 0 0 0 0 0 0 0 0 0 0 0
-0 -0 -0 -0 -0 -0 -0 -0 -0 0 -0 0 -0 0 0 0 0 0 0 0 0 0 0 0 0 0 0 0 0 0 0 0 0 0 0 0 0 0 0 0 0 0 0 0
-0 -0 -0 -0 -0 -0 -0 -0 -0 0 -0 0 0 0 0 0 0 0 0 0 0 0 0 0 0 0 0 0 0 0 0 0 0 0 0 0 0 0 0 0 0 0 0 0
-0 0 0 -0 -0 -0 -0 -0 0 -0 -0 0 0 0 0 0 0 0 0 0 0 0 0 0 0 0 0 0 0 0 0 0 0 0 0 0 0 0 0 0 0 0 0 0
-0 0 0 0 -0 -0 -0 0 -0 -0 0 0 0 0 0 0 0 0 0 0 0 0 0 0 0 0 0 0 0 0 0 0 0 0 0 0 0 0 0 0 0 0 0 0
-0 0 0 0 0 0 -0 0 -0 -0 -0 -0 0 0 0 0 0 0 0 0 0 0 0 0 0 0 0 0 0 0 0 0 0 0 0 0 0 0 0 0 0 0 0 0
0 0 0 0 0 0 0 0 -0 -0 -0 0 0 0 0 0 0 0 0 0 0 0 0 0 0 0 0 0 0 0 0 0 0 0 0 0 0 0 0 0 0 0 0 0
0 0 0 0 0 0 0 0 0 -0 -0 -0 -0 0 0 0 0 0 0 0 0 0 0 0 0 0 0 0 0 0 0 0 0 0 0 0 0 0 0 0 0 0 0 0
-0 0 0 0 0 0 0 0 0 -0 -0 -0 -0 -0 0 0 0 0 0 0 0 0 0 0 0 0 0 0 0 0 0 0 0 0 0 0 0 0 0 0 0 0 0 0
0 0 0 0 0 0 0 0 0 -0 -0 -0 -0 0 0 0 0 0 0 0 0 0 0 0 0 0 0 0 0 0 0 0 0 0 0 0 0 0 0 0 0 0 0 0
-0 0 -0 0 0 0 0 0 0 0 -0 0 -0 0 0 0 0 0 0 0 0 0 0 0 0 0 0 0 0 0 0 0 0 0 0 0 0 0 0 0 0 0 0 0
-0 0 0 0 -0 -0 0 0 0 0 0 0 0 0 0 0 0 0 0 0 0 0 0 0 0 0 0 0 0 0 0 0 0 0 0 0 0 0 0 0 0 0 0 0
0 0 0 0 0 -0 -0 -0 0 -0 -0 -0 0 0 0 0 0 0 0 0 0 0 0 0 0 0 0 0 0 0 0 0 0 0 0 0 0 0 0 0 0 0 0 0
Wind_Speed_500mb
40 41 40 38 38 42 44 48 41 56 57 54 50 51 50 53 48 53 55 54 56 57 55 52 46 38 33 35 43 47 45 48 53 56 54 55 57 64 62 62 56 52 50 47
35 34 36 42 44 47 52 54 55 59 62 51 58 44 39 44 53 60 69 78 80 61 58 55 51 40 40 40 41 44 48 50 53 54 55 57 58 58 57 51 51 51 50 49
25 26 23 26 43 45 47 46 39 42 45 43 46 40 43 46 58 71 73 69 62 57 49 49 53 52 49 46 46 50 51 52 53 55 56 59 57 54 55 56 55 52 49 48
18 22 23 16 12 22 31 32 36 42 44 46 45 52 58 59 64 72 60 47 51 61 61 60 58 62 60 51 53 54 55 56 49 58 55 59 57 58 58 57 57 56 51 51
9 19 31 39 5 9 14 35 41 49 34 39 55 72 79 65 57 60 60 73 70 61 61 61 58 54 55 54 54 55 56 53 49 54 55 61 61 66 70 65 59 54 52 54
8 10 16 16 11 10 23 35 13 30 39 49 62 36 43 58 70 73 78 82 76 65 62 63 61 55 53 63 60 64 53 48 53 48 59 67 70 74 70 66 62 59 52 47
23 15 20 12 15 27 19 17 53 60 61 61 42 49 92 83 74 78 76 75 67 65 73 70 63 64 67 65 65 58 44 47 47 51 66 71 74 82 76 72 62 58 61 60
9 9 11 20 24 7 35 63 62 70 74 77 81 79 82 84 86 81 77 73 69 67 70 64 57 55 61 64 61 48 42 48 40 59 69 74 82 80 70 72 73 70 66 57
7 9 38 49 45 58 59 57 62 75 77 70 81 83 82 83 79 77 75 75 79 67 63 60 55 57 63 58 46 42 40 42 59 73 77 79 84 82 82 77 75 61 54 45
13 10 26 63 50 57 57 59 72 78 65 77 76 76 80 79 78 75 81 81 78 74 63 57 49 52 48 41 38 33 39 59 76 80 74 68 70 86 82 63 60 54 48 43
20 30 49 46 64 69 68 74 70 71 77 72 72 76 76 81 83 84 82 79 72 69 67 63 49 41 39 34 35 43 61 72 75 74 74 78 86 74 71 56 52 48 43 40
8 48 45 62 68 68 74 70 68 74 76 76 71 74 79 83 83 84 86 93 91 98 103 87 66 50 43 43 55 69 72 79 87 93 95 89 85 75 57 56 53 47 46 41
22 57 62 66 70 71 66 79 74 74 74 74 78 71 74 76 87 91 84 87 78 5 50 62 59 54 46 57 60 79 75 80 95 96 75 72 69 73 68 53 43 39 38 38
46 54 62 66 73 67 75 71 70 62 65 63 65 70 73 75 80 80 77 69 41 60 63 60 59 60 67 59 65 60 68 74 74 74 65 63 59 57 61 59 54 47 42 39
47 53 56 69 67 68 70 66 66 62 66 70 70 69 71 73 68 61 59 66 55 66 65 62 58 65 68 62 64 65 78 64 65 65 63 59 55 55 59 55 52 54 49 45
55 50 60 65 66 68 71 71 63 65 68 68 71 69 65 58 43 42 48 54 65 56 63 67 64 66 70 64 62 69 66 62 58 57 58 55 60 59 60 55 49 47 50 49
49 52 63 69 70 67 70 68 63 63 66 70 68 64 63 54 44 45 46 46 58 68 58 56 58 62 63 65 64 62 64 67 58 51 58 58 53 55 51 46 47 47 56 52
43 42 48 57 61 63 71 77 75 72 70 65 62 59 51 46 41 41 39 42 48 57 59 50 47 65 57 55 56 60 61 54 50 51 52 52 58 54 52 45 50 61 52 44
44 40 43 52 57 58 59 75 72 67 64 65 62 66 59 48 39 46 37 46 56 55 50 50 46 53 53 53 56 56 53 49 49 51 52 58 63 62 46 51 67 57 55 50
48 39 39 46 52 55 55 69 70 67 64 60 62 63 57 53 47 47 41 48 46 41 39 40 37 44 52 48 53 52 50 46 57 58 60 62 63 63 59 65 66 62 55 50
46 42 38 43 49 53 54 56 77 78 73 69 65 64 61 51 49 47 45 47 39 35 36 38 46 43 31 44 39 38 43 50 58 61 61 63 71 64 72 73 65 60 51 48
44 43 40 40 45 50 53 51 62 79 85 81 74 65 69 65 53 51 45 43 35 27 29 31 37 46 46 40 37 44 53 55 59 63 66 73 69 68 79 76 67 58 49 44
39 40 37 39 42 45 48 53 53 59 79 84 80 72 68 59 54 51 48 39 31 27 27 32 30 33 36 36 42 53 51 60 64 67 70 68 62 65 77 74 65 55 47 42
39 37 38 36 33 40 51 52 54 49 56 72 78 72 62 56 52 46 36 29 25 25 28 28 25 26 29 39 47 50 57 60 61 64 66 63 58 65 73 68 62 55 48 42
36 35 35 39 36 38 41 45 47 53 47 51 69 74 72 58 50 45 36 30 26 24 26 29 26 25 32 42 45 48 48 52 56 57 57 58 57 63 69 66 61 56 51 46
38 35 31 34 32 33 34 37 43 47 51 48 46 61 68 72 59 47 40 32 26 24 25 28 29 30 38 42 43 43 45 49 51 55 58 59 60 63 62 59 56 53 51 53
29 34 36 31 36 32 31 35 36 39 45 48 46 43 52 58 62 62 52 41 29 24 23 29 33 32 35 42 44 46 45 48 50 53 57 58 60 61 60 57 55 54 56 60
Wind_Direction_500mb
261 269 274 276 270 267 258 246 241 267 269 279 283 292 298 291 288 290 289 293 298 287 277 273 267 269 268 278 290 285 280 268 260 261 258 248 242 238 235 230 222 214 206 201
264 264 264 264 262 257 256 259 264 269 273 278 280 294 304 298 300 295 295 295 293 280 277 269 260 270 274 284 297 283 278 265 259 260 256 245 238 230 224 214 203 196 194 191
269 272 295 268 252 247 251 254 265 277 284 299 295 299 298 301 298 294 293 296 294 282 275 278 260 265 283 280 292 288 277 268 261 258 252 238 230 217 206 196 189 184 181 182
276 290 260 260 307 293 273 280 283 290 294 301 303 307 298 296 298 299 295 286 287 290 282 276 271 268 271 274 282 283 276 265 259 256 243 228 215 202 188 180 176 174 176 178
251 258 282 286 82 349 331 290 292 282 309 327 313 303 290 291 301 296 290 293 291 281 279 277 273 271 269 266 276 278 275 261 259 251 221 211 201 187 181 169 172 167 168 176
275 282 279 343 138 1 312 283 14 338 313 307 309 292 289 305 300 290 289 285 282 280 278 274 271 267 264 266 265 274 267 260 257 234 209 202 188 180 169 170 167 164 166 168
248 267 275 30 1 315 283 329 322 324 308 305 295 286 295 307 298 295 289 288 285 280 277 275 272 269 256 254 258 263 263 262 236 221 201 185 177 172 171 166 163 154 158 162
247 248 268 17 340 293 309 303 311 308 303 307 304 299 298 297 292 288 286 286 281 274 275 277 269 251 247 255 262 263 262 241 236 195 181 176 180 171 162 158 160 160 163 158
288 278 314 320 310 301 298 300 302 309 309 306 303 295 293 291 290 287 286 284 286 279 274 271 261 253 245 249 258 258 237 227 189 178 172 176 172 162 160 161 162 152 156 155
301 276 324 322 316 315 316 306 311 310 310 307 298 298 294 292 290 287 285 283 280 280 275 271 259 239 242 248 262 216 213 169 172 169 158 154 157 158 159 150 151 153 159 159
279 296 318 317 323 320 320 317 317 316 309 300 297 296 299 296 293 291 288 286 281 268 255 252 244 235 242 249 201 200 163 162 160 160 153 149 151 154 154 149 154 163 164 164
292 299 310 312 322 324 323 321 314 314 310 307 309 302 302 300 301 300 299 301 289 274 260 247 231 226 229 200 189 164 156 149 151 152 150 146 146 146 155 158 160 161 157 156
299 303 315 318 324 329 327 320 316 316 316 311 309 312 307 309 313 310 310 306 307 208 159 172 177 181 188 167 159 147 144 146 145 146 140 144 147 152 145 146 154 156 163 170
317 321 321 333 333 333 329 328 327 321 321 319 323 328 330 326 326 328 338 359 93 106 125 141 152 156 154 151 150 141 142 140 140 144 150 144 138 136 141 142 138 136 138 143
326 326 333 335 337 334 335 332 335 332 330 332 341 338 337 337 337 347 15 48 99 106 117 125 132 145 153 147 139 139 141 135 140 142 143 142 140 138 140 142 141 138 139 140
319 332 345 345 343 342 341 340 339 338 338 340 340 346 339 350 6 30 55 79 88 98 128 125 128 139 147 142 141 141 145 144 143 140 139 142 142 141 143 140 136 136 141 140
329 342 349 350 348 349 348 347 345 344 344 348 348 360 354 13 35 55 68 76 96 98 104 115 123 130 135 142 146 143 144 143 138 140 141 142 142 141 139 134 136 137 141 144
337 342 347 350 350 351 350 356 356 355 355 355 1 10 21 16 34 54 69 90 90 102 109 110 130 132 135 136 139 138 142 143 143 141 142 142 145 143 136 135 141 144 143 148
337 344 348 355 357 357 353 360 360 1 4 9 16 17 19 33 44 66 78 99 103 109 110 115 125 134 133 139 137 143 146 146 142 143 146 150 152 146 138 139 143 140 141 144
348 358 354 358 1 2 358 358 11 9 15 20 22 28 30 37 51 70 80 82 92 99 111 118 113 132 136 144 148 151 148 146 150 155 155 156 159 150 144 143 145 144 147 144
356 359 358 3 4 5 6 5 19 21 22 27 29 29 34 37 52 63 77 80 89 107 118 129 132 128 135 137 139 146 151 157 161 160 160 160 159 159 154 150 148 148 143 143
357 1 2 3 6 8 9 10 15 26 26 26 28 29 32 37 49 58 57 66 78 104 125 133 143 138 138 138 140 147 155 158 159 163 164 165 164 164 161 158 155 153 152 150
0 2 6 7 10 11 13 15 13 15 28 28 27 27 31 32 28 39 49 57 77 97 119 131 141 157 161 157 149 152 157 160 162 164 165 165 167 165 163 163 161 161 161 155
4 2 2 2 10 15 16 13 13 18 18 29 31 29 26 32 35 39 45 52 68 99 113 113 128 151 166 156 154 159 162 164 164 164 164 165 160 164 165 167 167 167 167 163
11 5 4 5 12 15 14 11 13 16 18 18 27 32 32 31 30 28 35 50 62 91 108 119 130 148 162 161 159 161 162 163 166 167 169 170 167 166 168 172 173 171 171 168
4 10 5 9 4 6 13 13 14 13 17 19 19 25 31 29 32 36 38 42 60 79 106 122 135 149 157 159 164 165 162 163 165 167 168 169 169 169 172 174 174 173 170 165
0 355 10 10 14 12 16 13 11 11 14 17 23 26 26 32 30 33 37 42 48 68 95 112 123 138 152 156 160 162 163 164 167 169 169 171 170 171 171 172 174 173 167 160
Wind_Speed_850mb
40 41 40 38 38 42 44 48 41 56 57 54 50 51 50 53 48 53 55 54 56 57 55 52 46 38 33 35 43 47 45 48 53 56 54 55 57 64 62 62 56 52 50 47
35 34 36 42 44 47 52 54 55 59 62 51 58 44 39 44 53 60 69 78 80 61 58 55 51 40 40 40 41 44 48 50 53 54 55 57 58 58 57 51 51 51 50 49
25 26 23 26 43 45 47 46 39 42 45 43 46 40 43 46 58 71 73 69 62 57 49 49 53 52 49 46 46 50 51 52 53 55 56 59 57 54 55 56 55 52 49 48
18 22 23 16 12 22 31 32 36 42 44 46 45 52 58 59 64 72 60 47 51 61 61 60 58 62 60 51 53 54 55 56 49 58 55 59 57 58 58 57 57 56 51 51
9 19 31 39 5 9 14 35 41 49 34 39 55 72 79 65 57 60 60 73 70 61 61 61 58 54 55 54 54 55 56 53 49 54 55 61 61 66 70 65 59 54 52 54
8 10 16 16 11 10 23 35 13 30 39 49 62 36 43 58 70 73 78 82 76 65 62 63 61 55 53 63 60 64 53 48 53 48 59 67 70 74 70 66 62 59 52 47
23 15 20 12 15 27 19 17 53 60 61 61 42 49 92 83 74 78 76 75 67 65 73 70 63 64 67 65 65 58 44 47 47 51 66 71 74 82 76 72 62 58 61 60
9 9 11 20 24 7 35 63 62 70 74 77 81 79 82 84 86 81 77 73 69 67 70 64 57 55 61 64 61 48 42 48 40 59 69 74 82 80 70 72 73 70 66 57
7 9 38 49 45 58 59 57 62 75 77 70 81 83 82 83 79 77 75 75 79 67 63 60 55 57 63 58 46 42 40 42 59 73 77 79 84 82 82 77 75 61 54 45
13 10 26 63 50 57 57 59 72 78 65 77 76 76 80 79 78 75 81 81 78 74 63 57 49 52 48 41 38 33 39 59 76 80 74 68 70 86 82 63 60 54 48 43
20 30 49 46 64 69 68 74 70 71 77 72 72 76 76 81 83 84 82 79 72 69 67 63 49 41 39 34 35 43 61 72 75 74 74 78 86 74 71 56 52 48 43 40
8 48 45 62 68 68 74 70 68 74 76 76 71 74 79 83 83 84 86 93 91 98 103 87 66 50 43 43 55 69 72 79 87 93 95 89 85 75 57 56 53 47 46 41
22 57 62 66 70 71 66 79 74 74 74 74 78 71 74 76 87 91 84 87 78 5 50 62 59 54 46 57 60 79 75 80 95 96 75 72 69 73 68 53 43 39 38 38
46 54 62 66 73 67 75 71 70 62 65 63 65 70 73 75 80 80 77 69 41 60 63 60 59 60 67 59 65 60 68 74 74 74 65 63 59 57 61 59 54 47 42 39
47 53 56 69 67 68 70 66 66 62 66 70 70 69 71 73 68 61 59 66 55 66 65 62 58 65 68 62 64 65 78 64 65 65 63 59 55 55 59 55 52 54 49 45
55 50 60 65 66 68 71 71 63 65 68 68 71 69 65 58 43 42 48 54 65 56 63 67 64 66 70 64 62 69 66 62 58 57 58 55 60 59 60 55 49 47 50 49
49 52 63 69 70 67 70 68 63 63 66 70 68 64 63 54 44 45 46 46 58 68 58 56 58 62 63 65 64 62 64 67 58 51 58 58 53 55 51 46 47 47 56 52
43 42 48 57 61 63 71 77 75 72 70 65 62 59 51 46 41 41 39 42 48 57 59 50 47 65 57 55 56 60 61 54 50 51 52 52 58 54 52 45 50 61 52 44
44 40 43 52 57 58 59 75 72 67 64 65 62 66 59 48 39 46 37 46 56 55 50 50 46 53 53 53 56 56 53 49 49 51 52 58 63 62 46 51 67 57 55 50
48 39 39 46 52 55 55 69 70 67 64 60 62 63 57 53 47 47 41 48 46 41 39 40 37 44 52 48 53 52 50 46 57 58 60 62 63 63 59 65 66 62 55 50
46 42 38 43 49 53 54 56 77 78 73 69 65 64 61 51 49 47 45 47 39 35 36 38 46 43 31 44 39 38 43 50 58 61 61 63 71 64 72 73 65 60 51 48
44 43 40 40 45 50 53 51 62 79 85 81 74 65 69 65 53 51 45 43 35 27 29 31 37 46 46 40 37 44 53 55 59 63 66 73 69 68 79 76 67 58 49 44
39 40 37 39 42 45 48 53 53 59 79 84 80 72 68 59 54 51 48 39 31 27 27 32 30 33 36 36 42 53 51 60 64 67 70 68 62 65 77 74 65 55 47 42
39 37 38 36 33 40 51 52 54 49 56 72 78 72 62 56 52 46 36 29 25 25 28 28 25 26 29 39 47 50 57 60 61 64 66 63 58 65 73 68 62 55 48 42
36 35 35 39 36 38 41 45 47 53 47 51 69 74 72 58 50 45 36 30 26 24 26 29 26 25 32 42 45 48 48 52 56 57 57 58 57 63 69 66 61 56 51 46
38 35 31 34 32 33 34 37 43 47 51 48 46 61 68 72 59 47 40 32 26 24 25 28 29 30 38 42 43 43 45 49 51 55 58 59 60 63 62 59 56 53 51 53
29 34 36 31 36 32 31 35 36 39 45 48 46 43 52 58 62 62 52 41 29 24 23 29 33 32 35 42 44 46 45 48 50 53 57 58 60 61 60 57 55 54 56 60
Wind_Direction_850mb
261 269 274 276 270 267 258 246 241 267 269 279 283 292 298 291 288 290 289 293 298 287 277 273 267 269 268 278 290 285 280 268 260 261 258 248 242 238 235 230 222 214 206 201
264 264 264 264 262 257 256 259 264 269 273 278 280 294 304 298 300 295 295 295 293 280 277 269 260 270 274 284 297 283 278 265 259 260 256 245 238 230 224 214 203 196 194 191
269 272 295 268 252 247 251 254 265 277 284 299 295 299 298 301 298 294 293 296 294 282 275 278 260 265 283 280 292 288 277 268 261 258 252 238 230 217 206 196 189 184 181 182
276 290 260 260 307 293 273 280 283 290 294 301 303 307 298 296 298 299 295 286 287 290 282 276 271 268 271 274 282 283 276 265 259 256 243 228 215 202 188 180 176 174 176 178
251 258 282 286 82 349 331 290 292 282 309 327 313 303 290 291 301 296 290 293 291 281 279 277 273 271 269 266 276 278 275 261 259 251 221 211 201 187 181 169 172 167 168 176
275 282 279 343 138 1 312 283 14 338 313 307 309 292 289 305 300 290 289 285 282 280 278 274 271 267 264 266 265 274 267 260 257 234 209 202 188 180 169 170 167 164 166 168
248 267 275 30 1 315 283 329 322 324 308 305 295 286 295 307 298 295 289 288 285 280 277 275 272 269 256 254 258 263 263 262 236 221 201 185 177 172 171 166 163 154 158 162
247 248 268 17 340 293 309 303 311 308 303 307 304 299 298 297 292 288 286 286 281 274 275 277 269 251 247 255 262 263 262 241 236 195 181 176 180 171 162 158 160 160 163 158
288 278 314 320 310 301 298 300 302 309 309 306 303 295 293 291 290 287 286 284 286 279 274 271 261 253 245 249 258 258 237 227 189 178 172 176 172 162 160 161 162 152 156 155
301 276 324 322 316 315 316 306 311 310 310 307 298 298 294 292 290 287 285 283 280 280 275 271 259 239 242 248 262 216 213 169 172 169 158 154 157 158 159 150 151 153 159 159
279 296 318 317 323 320 320 317 317 316 309 300 297 296 299 296 293 291 288 286 281 268 255 252 244 235 242 249 201 200 163 162 160 160 153 149 151 154 154 149 154 163 164 164
292 299 310 312 322 324 323 321 314 314 310 307 309 302 302 300 301 300 299 301 289 274 260 247 231 226 229 200 189 164 156 149 151 152 150 146 146 146 155 158 160 161 157 156
299 303 315 318 324 329 327 320 316 316 316 311 309 312 307 309 313 310 310 306 307 208 159 172 177 181 188 167 159 147 144 146 145 146 140 144 147 152 145 146 154 156 163 170
317 321 321 333 333 333 329 328 327 321 321 319 323 328 330 326 326 328 338 359 93 106 125 141 152 156 154 151 150 141 142 140 140 144 150 144 138 136 141 142 138 136 138 143
326 326 333 335 337 334 335 332 335 332 330 332 341 338 337 337 337 347 15 48 99 106 117 125 132 145 153 147 139 139 141 135 140 142 143 142 140 138 140 142 141 138 139 140
319 332 345 345 343 342 341 340 339 338 338 340 340 346 339 350 6 30 55 79 88 98 128 125 128 139 147 142 141 141 145 144 143 140 139 142 142 141 143 140 136 136 141 140
329 342 349 350 348 349 348 347 345 344 344 348 348 360 354 13 35 55 68 76 96 98 104 115 123 130 135 142 146 143 144 143 138 140 141 142 142 141 139 134 136 137 141 144
337 342 347 350 350 351 350 356 356 355 355 355 1 10 21 16 34 54 69 90 90 102 109 110 130 132 135 136 139 138 142 143 143 141 142 142 145 143 136 135 141 144 143 148
337 344 348 355 357 357 353 360 360 1 4 9 16 17 19 33 44 66 78 99 103 109 110 115 125 134 133 139 137 143 146 146 142 143 146 150 152 146 138 139 143 140 141 144
348 358 354 358 1 2 358 358 11 9 15 20 22 28 30 37 51 70 80 82 92 99 111 118 113 132 136 144 148 151 148 146 150 155 155 156 159 150 144 143 145 144 147 144
356 359 358 3 4 5 6 5 19 21 22 27 29 29 34 37 52 63 77 80 89 107 118 129 132 128 135 137 139 146 151 157 161 160 160 160 159 159 154 150 148 148 143 143
357 1 2 3 6 8 9 10 15 26 26 26 28 29 32 37 49 58 57 66 78 104 125 133 143 138 138 138 140 147 155 158 159 163 164 165 164 164 161 158 155 153 152 150
0 2 6 7 10 11 13 15 13 15 28 28 27 27 31 32 28 39 49 57 77 97 119 131 141 157 161 157 149 152 157 160 162 164 165 165 167 165 163 163 161 161 161 155
4 2 2 2 10 15 16 13 13 18 18 29 31 29 26 32 35 39 45 52 68 99 113 113 128 151 166 156 154 159 162 164 164 164 164 165 160 164 165 167 167 167 167 163
11 5 4 5 12 15 14 11 13 16 18 18 27 32 32 31 30 28 35 50 62 91 108 119 130 148 162 161 159 161 162 163 166 167 169 170 167 166 168 172 173 171 171 168
4 10 5 9 4 6 13 13 14 13 17 19 19 25 31 29 32 36 38 42 60 79 106 122 135 149 157 159 164 165 162 163 165 167 168 169 169 169 172 174 174 173 170 165
0 355 10 10 14 12 16 13 11 11 14 17 23 26 26 32 30 33 37 42 48 68 95 112 123 138 152 156 160 162 163 164 167 169 169 171 170 171 171 172 174 173 167 160